Regional Weather Roundup
Issued by NWS Upton, NY

Home | Current Version | Previous Version | Text Only | Print | Product List | Glossary On
Versions: 1 2 3 4 5 6 7 8 9 10 11 12 13 14 15 16 17 18 19 20 21 22 23 24 25 26 27 28 29 30 31 32 33 34 35 36 37 38 39 40 41 42 43 44 45 46 47 48 49 50
000
ASUS41 KOKX 280405
RWROKX

REGIONAL WEATHER ROUNDUP
NATIONAL WEATHER SERVICE NEW YORK NY
1100 PM EST TUE JAN 27 2015

NOTE: "FAIR" INDICATES FEW OR NO CLOUDS BELOW 12,000 FEET WITH NO
SIGNIFICANT WEATHER AND/OR OBSTRUCTIONS TO VISIBILITY.

NYZ071-072-176-178-NJZ106-104-280500-
NEW YORK CITY METRO AREA


CITY           SKY/WX    TMP DP  RH WIND       PRES   REMARKS
CENTRAL PARK   CLOUDY    21   5  50 NW10G20   29.84R WCI  10
LAGUARDIA APRT CLOUDY    21  10  62 N15G21    29.83R WCI   8
KENNEDY INTL   CLOUDY    22   8  55 NW22      29.83R WCI   6
NEWARK/LIBERTY CLOUDY    20   5  52 NW18      29.84R WCI   5
BRNX BOT. GARD   N/A    N/A N/A N/A N13       29.84R
TETERBORO      CLOUDY    20   4  50 NW13G23   29.84R WCI   7
$$

NYZ177-179-078>081-280500-
LONG ISLAND NEW YORK

CITY           SKY/WX    TMP DP  RH WIND       PRES   REMARKS
FARMINGDALE    CLOUDY    19   8  62 NW13      29.81R WCI   6
ISLIP          FLURRIES  18   9  68 NW25G33   29.77R WCI   0
SHIRLEY        SNOW      17  11  77 NW14G21   29.79R VSB 1/2 WCI   3
WESTHAMPTON    LGT SNOW  17   9  70 NW17G25   29.77R WCI   1
MONTAUK POINT    N/A     19  10  68 NW15G24   29.73R WCI   5
$$

NYZ052-065-067-280500-
HUDSON VALLEY

CITY           SKY/WX    TMP DP  RH WIND       PRES   REMARKS
WHITE PLAINS   CLOUDY    15   5  64 NW15      29.79R WCI   0
NEWBURGH       CLOUDY    12   7  79 NE8       29.82R WCI   1
MONTGOMERY     CLOUDY    13   6  74 NE6       29.82R WCI   4
POUGHKEEPSIE   CLOUDY    15   4  61 NW7       29.85R WCI   5
ALBANY         CLOUDY    13   5  70 N9        29.88S WCI   1
$$

NJZ001-105-106-008-010-013-015-019>022-104-280500-
NEW JERSEY

CITY           SKY/WX    TMP DP  RH WIND       PRES   REMARKS
NEWARK/LIBERTY CLOUDY    20   5  52 NW18      29.84R WCI   5
TETERBORO      CLOUDY    20   4  50 NW13G23   29.84R WCI   7
CALDWELL       CLOUDY    18   2  49 NW9       29.85R WCI   7
MORRISTOWN     CLOUDY    21   5  49 NW8       29.85R WCI  12
SOMERVILLE     MOCLDY    19   5  54 NW13      29.85R WCI   6
SUSSEX         CLOUDY    16   1  51 VRB6      29.84R WCI   7
ANDOVER          N/A     15   2  56 VRB7      29.85R WCI   5
TRENTON        PTCLDY    19   5  54 NW12      29.86R WCI   7
MILLVILLE      PTCLDY    27   7  42 NW18G26   29.86R WCI  14
ATLANTIC CITY  PTCLDY    24   9  52 NW14      29.84R WCI  12
WRIGHTSTOWN    CLEAR     20   6  55 NW14      29.84R WCI   6
TOMS RIVER     PTCLDY    21  10  63 NW15G23   29.85R WCI   8
BELMAR         MOCLDY    19   5  53 NW15      29.82R WCI   5
$$

PAZ047>061-062-071-280500-
EASTERN PENNSYLVANIA

CITY           SKY/WX    TMP DP  RH WIND       PRES   REMARKS
PHILADELPHIA   PTCLDY    23   6  48 NW20G28   29.90R WCI   8
ALLENTOWN      MOCLDY    18   5  57 N20G26    29.90R WCI   2
SCRANTON       MOCLDY    13   0  56 N13G24    29.92R WCI  -2
$$

CTZ002-004>006-009-010-012-RIZ004-006-007-MAZ004-011-015-280500-
SOUTHERN NEW ENGLAND
 IN CT

CITY           SKY/WX    TMP DP  RH WIND       PRES   REMARKS
BRADLEY INTL   LGT SNOW  13   6  74 NW13      29.76R WCI  -2
HARTFORD       CLOUDY    13   6  74 NW8G24    29.79R HAZE    WCI   2
DANBURY        CLOUDY    14   2  58 NW13G29   29.80R WCI   0
WTRBRY/OXFORD  CLOUDY    12   0  57 N18G29    29.73R WCI  -5
BRIDGEPORT     LGT SNOW  16   9  74 NW20G30   29.80R WCI  -1
MERIDEN        CLOUDY    13   3  64 NW14G22   29.79R WCI  -2
NEW HAVEN      LGT SNOW  15   6  67 N15G23    29.78R WCI   0
CHESTER        FLURRIES  14   9  79 N16G24    29.72R WCI  -2
GROTON         CLOUDY    14   7  73 N21G31    29.70R BLWGSNOWWCI  -4
WILLIMANTIC    LGT SNOW  14   6  70 NW12G21   29.73R WCI   0

 IN RI

CITY           SKY/WX    TMP DP  RH WIND       PRES   REMARKS
PROVIDENCE     LGT SNOW  14   9  80 NW9G22    29.68R WCI   2
BLOCK ISLAND   MOCLDY    16   7  67 NW18G26   29.67R WCI  -1
WESTERLY       MIX PCPN  14   7  73 NW14G23   29.70R WCI  -1

 IN MA

CITY           SKY/WX    TMP DP  RH WIND       PRES   REMARKS
BOSTON         LGT SNOW  14   8  77 NW15G24   29.65R WCI  -1
WORCESTER      CLOUDY     9   2  73 NW15G23   29.61R WCI  -8
WESTFIELD      LGT SNOW  12   4  70 NW13      29.76R WCI  -3
PROVINCETOWN   NOT AVBL
NANTUCKET      LGT SNOW  20  15  81 NW23G33   29.57R WCI   3
$$

ANZ330-335-338-340-345-350-353-355-280500-
COASTAL MARINE OBSERVATIONS


STATION/POSITION TIME  SKY/WX   TEMP    WIND        PRES    VSBY  WAVE
                                AIR SEA DIR/SP/G                  HT/PER
                 (UTC)          (F)     (DEG/KT/KT) (MB)    (MI)  (FT/S)
NY HARB ENTRANCE 0400            26 40  320/ 23/ 31 1008.8          5/14
4S FIRE IS       0300               38                N/A           5/13
20S FIRE ISLAND  0300               43              1007.5          8/ 6
23SW MTP         0400                                 N/A           7/12
HUDSON CANYON    NOT AVBL
EXECUTION ROCKS  0400            20 34  340/ 16/ 21   N/A
WESTERN LI SOUND 0400            19     330/ 16/ 19   N/A           1/ 2
CENTRAL LI SOUND 0300            18 35  320/ 23/ 29   N/A           3/ 4
EASTERN LI SOUND NOT AVBL
ROBBINS REEF     0300            21     330/ 16/ 21 1008.8
$$


>>>>>>>>>>>>>>>>>>>>>>>>>>>> KEY <<<<<<<<<<<<<<<<<<<<<<<<<<<
>                                                          <
>     SKY/WX - SKY CONDITION/PRESENT WEATHER               <
>     TMP    - TEMPERATURE IN FAHRENHEIT                   <
>     DP     - DEWPOINT IN FAHRENHEIT                      <
>     RH     - RELATIVE HUMIDITY IN PERCENT                <
>     WIND   - DIRECTION AND SPEED IN MPH                  <
>     PRES   - MEAN SEA LEVEL PRESSURE IN INCHES OF HG     <
>     WCI    - WIND CHILL INDEX                            <
>     VSB    - VISIBILITY IN MILES                         <
>     HX     - HEAT INDEX                                  <
>     TC     - TEMPERATURE IN CELSIUS                      <
>     VRB    - VARIABLE WIND DIRECTION                     <
>                                                          <
>>>>>>>>>>>>>>>>>>>>>>>>>>>> KEY <<<<<<<<<<<<<<<<<<<<<<<<<<<





USA.gov is the U.S. government's official web portal to all federal, state and local government web resources and services.